When you browse on this site, cookies collect data to enhance your experience and personalize the content and advertising you see.
Visit our Privacy Policy to learn more. By continuing to use the site, you agree to this use of cookies and data.
  • en France
  • Liste des pays
  • À 7 jours
  • Température de l'eau
  • Carte satellitaire
  • Carte météo
  • Widgets météo
  • user-avatar
    Se connecter

    Météo par heure à Harada

    Ce jour, 12 Décembre, Mercredi

    Heure Température Précipitation Vent Pression Humidité
    00:00 -2°C° 0 mm 3 m/s 596 mmHg 76%
    01:00 -4°C° 0 mm 3 m/s 596 mmHg 77%
    02:00 -4°C° 0 mm 3 m/s 596 mmHg 78%
    03:00 -4°C° 0 mm 3 m/s 597 mmHg 79%
    04:00 -4°C° 0 mm 3 m/s 597 mmHg 79%
    05:00 -4°C° 0 mm 3 m/s 597 mmHg 78%
    06:00 -5°C° 0 mm 3 m/s 597 mmHg 78%
    07:00 -4°C° 0 mm 3 m/s 597 mmHg 75%
    08:00 -2°C° 0 mm 3 m/s 597 mmHg 71%
    09:00 -2°C° 0 mm 3 m/s 598 mmHg 68%
    10:00 -1°C° 0.1 mm 3 m/s 597 mmHg 68%
    11:00 0°C° 0.1 mm 3 m/s 597 mmHg 68%
    12:00 0°C° 0.1 mm 3 m/s 597 mmHg 69%
    13:00 0°C° 0.7 mm 3 m/s 597 mmHg 71%
    14:00 0°C° 0.7 mm 3 m/s 596 mmHg 73%
    15:00 0°C° 0.7 mm 3 m/s 596 mmHg 75%
    16:00 0°C° 0.6 mm 3 m/s 596 mmHg 76%
    17:00 -1°C° 0.6 mm 3 m/s 596 mmHg 77%
    18:00 -1°C° 0.6 mm 3 m/s 596 mmHg 77%
    19:00 -1°C° 0.4 mm 3 m/s 596 mmHg 78%
    20:00 -1°C° 0.4 mm 3 m/s 596 mmHg 78%
    21:00 -1°C° 0.4 mm 3 m/s 596 mmHg 78%
    22:00 -1°C° 0.3 mm 3 m/s 596 mmHg 78%
    23:00 -1°C° 0.3 mm 3 m/s 596 mmHg 79%

    Demain, 13 Décembre, Jeudi

    Heure Température Précipitation Vent Pression Humidité
    00:00 -1°C° 0.3 mm 3 m/s 596 mmHg 79%
    01:00 -2°C° 0.1 mm 3 m/s 596 mmHg 80%
    02:00 -2°C° 0.1 mm 3 m/s 596 mmHg 81%
    03:00 -4°C° 0.1 mm 3 m/s 595 mmHg 82%
    04:00 -4°C° 0 mm 3 m/s 595 mmHg 82%
    05:00 -5°C° 0 mm 3 m/s 595 mmHg 82%
    06:00 -6°C° 0 mm 3 m/s 595 mmHg 82%
    07:00 -5°C° 0.1 mm 3 m/s 596 mmHg 80%
    08:00 -4°C° 0.1 mm 2 m/s 596 mmHg 78%
    09:00 -4°C° 0.1 mm 2 m/s 597 mmHg 77%
    10:00 -3°C° 0.2 mm 2 m/s 597 mmHg 77%
    11:00 -4°C° 0.2 mm 3 m/s 597 mmHg 78%
    12:00 -2°C° 0.2 mm 3 m/s 598 mmHg 78%
    13:00 -2°C° 0.3 mm 3 m/s 598 mmHg 79%
    14:00 -4°C° 0.3 mm 3 m/s 598 mmHg 80%
    15:00 -4°C° 0.3 mm 3 m/s 599 mmHg 81%
    16:00 -4°C° 0.2 mm 2 m/s 599 mmHg 83%
    17:00 -4°C° 0.2 mm 2 m/s 599 mmHg 85%
    18:00 -5°C° 0.2 mm 2 m/s 599 mmHg 87%
    19:00 -6°C° 0.1 mm 2 m/s 599 mmHg 86%
    20:00 -6°C° 0.1 mm 1 m/s 599 mmHg 84%
    21:00 -6°C° 0.1 mm 1 m/s 599 mmHg 82%
    22:00 -8°C° 0 mm 2 m/s 599 mmHg 79%
    23:00 -8°C° 0 mm 2 m/s 599 mmHg 76%

    Après-demain, 14 Décembre, Vendredi

    Heure Température Précipitation Vent Pression Humidité
    00:00 -9°C° 0 mm 2 m/s 600 mmHg 72%
    01:00 -9°C° 0 mm 2 m/s 600 mmHg 71%
    02:00 -9°C° 0 mm 2 m/s 600 mmHg 70%
    03:00 -9°C° 0 mm 2 m/s 600 mmHg 68%
    04:00 -10°C° 0 mm 2 m/s 600 mmHg 68%
    05:00 -10°C° 0 mm 2 m/s 600 mmHg 68%
    06:00 -10°C° 0 mm 2 m/s 600 mmHg 67%
    07:00 -9°C° 0 mm 2 m/s 601 mmHg 66%
    08:00 -8°C° 0 mm 2 m/s 602 mmHg 65%
    09:00 -8°C° 0 mm 2 m/s 602 mmHg 64%
    10:00 -7°C° 0 mm 2 m/s 602 mmHg 62%
    11:00 -6°C° 0 mm 2 m/s 603 mmHg 61%
    12:00 -4°C° 0 mm 2 m/s 603 mmHg 59%
    13:00 -5°C° 0 mm 2 m/s 603 mmHg 60%
    14:00 -5°C° 0 mm 2 m/s 603 mmHg 61%
    15:00 -4°C° 0 mm 1 m/s 603 mmHg 62%
    16:00 -6°C° 0 mm 1 m/s 602 mmHg 65%
    17:00 -7°C° 0 mm 1 m/s 602 mmHg 67%
    18:00 -8°C° 0 mm 1 m/s 602 mmHg 69%
    19:00 -8°C° 0 mm 1 m/s 602 mmHg 69%
    20:00 -8°C° 0 mm 1 m/s 602 mmHg 69%
    21:00 -8°C° 0 mm 1 m/s 602 mmHg 69%
    22:00 -10°C° 0 mm 2 m/s 602 mmHg 70%
    23:00 -10°C° 0 mm 2 m/s 602 mmHg 70%

    15 Décembre, Samedi

    Heure Température Précipitation Vent Pression Humidité
    00:00 -10°C° 0 mm 2 m/s 602 mmHg 70%
    01:00 -12°C° 0 mm 2 m/s 602 mmHg 69%
    02:00 -12°C° 0 mm 2 m/s 601 mmHg 69%
    03:00 -12°C° 0 mm 2 m/s 601 mmHg 69%
    04:00 -13°C° 0 mm 2 m/s 601 mmHg 67%
    05:00 -13°C° 0 mm 2 m/s 601 mmHg 65%
    06:00 -13°C° 0 mm 2 m/s 602 mmHg 63%
    07:00 -12°C° 0 mm 2 m/s 602 mmHg 61%
    08:00 -9°C° 0 mm 1 m/s 603 mmHg 58%
    09:00 -8°C° 0 mm 1 m/s 604 mmHg 56%
    10:00 -6°C° 0 mm 1 m/s 604 mmHg 52%
    11:00 -4°C° 0 mm 1 m/s 604 mmHg 49%
    12:00 -3°C° 0 mm 1 m/s 605 mmHg 46%
    13:00 -3°C° 0 mm 1 m/s 604 mmHg 48%
    14:00 -3°C° 0 mm 1 m/s 604 mmHg 50%
    15:00 -3°C° 0 mm 1 m/s 604 mmHg 53%
    16:00 -6°C° 0 mm 1 m/s 604 mmHg 53%
    17:00 -7°C° 0 mm 1 m/s 604 mmHg 52%
    18:00 -9°C° 0 mm 2 m/s 603 mmHg 52%
    19:00 -9°C° 0 mm 2 m/s 603 mmHg 50%
    20:00 -9°C° 0 mm 2 m/s 603 mmHg 47%
    21:00 -9°C° 0 mm 2 m/s 603 mmHg 45%
    22:00 -9°C° 0 mm 2 m/s 603 mmHg 45%
    23:00 -9°C° 0 mm 2 m/s 603 mmHg 45%

    16 Décembre, Dimanche

    Heure Température Précipitation Vent Pression Humidité
    00:00 -9°C° 0 mm 2 m/s 603 mmHg 46%
    01:00 -9°C° 0 mm 2 m/s 604 mmHg 47%
    02:00 -9°C° 0 mm 2 m/s 604 mmHg 48%
    03:00 -8°C° 0 mm 2 m/s 604 mmHg 49%
    04:00 -8°C° 0 mm 2 m/s 604 mmHg 49%
    05:00 -8°C° 0 mm 2 m/s 604 mmHg 49%
    06:00 -8°C° 0 mm 2 m/s 604 mmHg 50%
    07:00 -7°C° 0 mm 2 m/s 604 mmHg 50%
    08:00 -6°C° 0 mm 2 m/s 605 mmHg 50%
    09:00 -5°C° 0 mm 2 m/s 605 mmHg 50%
    10:00 -4°C° 0 mm 2 m/s 606 mmHg 50%
    11:00 -2°C° 0 mm 2 m/s 606 mmHg 49%
    12:00 -1°C° 0 mm 2 m/s 606 mmHg 49%
    13:00 -2°C° 0 mm 2 m/s 606 mmHg 51%
    14:00 -2°C° 0 mm 2 m/s 605 mmHg 54%
    15:00 0°C° 0 mm 1 m/s 605 mmHg 56%
    16:00 -4°C° 0 mm 2 m/s 604 mmHg 55%
    17:00 -5°C° 0 mm 2 m/s 604 mmHg 53%
    18:00 -6°C° 0 mm 2 m/s 604 mmHg 51%
    19:00 -6°C° 0 mm 2 m/s 603 mmHg 51%
    20:00 -6°C° 0 mm 2 m/s 603 mmHg 51%
    21:00 -6°C° 0 mm 2 m/s 603 mmHg 51%
    22:00 -6°C° 0 mm 2 m/s 603 mmHg 52%
    23:00 -6°C° 0 mm 2 m/s 603 mmHg 54%

    17 Décembre, Lundi

    Heure Température Précipitation Vent Pression Humidité
    00:00 -6°C° 0 mm 2 m/s 603 mmHg 55%
    01:00 -6°C° 0 mm 2 m/s 603 mmHg 57%
    02:00 -6°C° 0 mm 2 m/s 603 mmHg 58%
    03:00 -6°C° 0 mm 2 m/s 603 mmHg 59%
    04:00 -6°C° 0 mm 2 m/s 603 mmHg 60%
    05:00 -6°C° 0 mm 2 m/s 602 mmHg 60%
    06:00 -6°C° 0 mm 2 m/s 602 mmHg 61%
    07:00 -3°C° 0 mm 1 m/s 603 mmHg 61%
    08:00 -2°C° 0 mm 1 m/s 603 mmHg 62%
    09:00 -2°C° 0 mm 1 m/s 603 mmHg 62%
    10:00 -1°C° 0 mm 1 m/s 604 mmHg 61%
    11:00 0°C° 0 mm 1 m/s 604 mmHg 60%
    12:00 +1°C° 0 mm 1 m/s 604 mmHg 58%
    13:00 +1°C° 0 mm 1 m/s 604 mmHg 61%
    14:00 0°C° 0 mm 1 m/s 603 mmHg 64%
    15:00 0°C° 0 mm 1 m/s 603 mmHg 67%
    16:00 -1°C° 0 mm 1 m/s 603 mmHg 67%
    17:00 -2°C° 0 mm 1 m/s 602 mmHg 68%
    18:00 -6°C° 0 mm 2 m/s 602 mmHg 69%
    19:00 -6°C° 0 mm 2 m/s 602 mmHg 66%
    20:00 -6°C° 0 mm 2 m/s 602 mmHg 64%
    21:00 -6°C° 0 mm 2 m/s 602 mmHg 61%
    22:00 -6°C° 0 mm 2 m/s 602 mmHg 61%
    23:00 -6°C° 0 mm 2 m/s 602 mmHg 61%
    Voir plus